Time,TemperatureF,DewpointF,PressureIn,WindDirection,WindDirectionDegrees,WindSpeedMPH,WindSpeedGustMPH,Humidity,HourlyPrecipIn,Conditions,Clouds,dailyrainin,SoftwareType,DateUTC
2013-01-03 00:08:00,28.0,23.0,30.26,WNW,297,0.0,2.0,80,0.00,,,0.00,weatherlink.com 1.10,2013-01-03 06:08:00,
2013-01-03 00:23:00,28.1,23.0,30.26,West,271,0.0,2.0,81,0.00,,,0.00,weatherlink.com 1.10,2013-01-03 06:23:00,
2013-01-03 00:38:00,28.1,23.0,30.26,NW,309,0.0,2.0,81,0.00,,,0.00,weatherlink.com 1.10,2013-01-03 06:38:00,
2013-01-03 00:53:00,28.2,23.0,30.25,WNW,300,0.0,2.0,81,0.00,,,0.00,weatherlink.com 1.10,2013-01-03 06:53:00,
2013-01-03 01:08:00,28.3,24.0,30.25,WNW,287,0.0,2.0,82,0.00,,,0.00,weatherlink.com 1.10,2013-01-03 07:08:00,
2013-01-03 01:23:00,28.3,24.0,30.26,NW,309,1.0,2.0,82,0.00,,,0.00,weatherlink.com 1.10,2013-01-03 07:23:00,
2013-01-03 01:38:00,28.4,24.0,30.26,WNW,302,0.0,1.0,82,0.00,,,0.00,weatherlink.com 1.10,2013-01-03 07:38:00,
2013-01-03 01:53:00,27.8,23.0,30.27,WNW,302,0.0,1.0,82,0.00,,,0.00,weatherlink.com 1.10,2013-01-03 07:53:00,
2013-01-03 02:08:00,26.7,22.0,30.27,WNW,302,0.0,0.0,83,0.00,,,0.00,weatherlink.com 1.10,2013-01-03 08:08:00,
2013-01-03 02:23:00,26.0,22.0,30.28,WNW,302,0.0,1.0,84,0.00,,,0.00,weatherlink.com 1.10,2013-01-03 08:23:00,
2013-01-03 02:38:00,25.6,22.0,30.28,WNW,302,0.0,0.0,85,0.00,,,0.00,weatherlink.com 1.10,2013-01-03 08:38:00,
2013-01-03 02:53:00,24.8,21.0,30.29,WNW,302,0.0,0.0,86,0.00,,,0.00,weatherlink.com 1.10,2013-01-03 08:53:00,
2013-01-03 03:08:00,24.0,21.0,30.29,WNW,302,0.0,0.0,87,0.00,,,0.00,weatherlink.com 1.10,2013-01-03 09:08:00,
2013-01-03 03:23:00,23.3,20.0,30.29,WNW,302,0.0,0.0,88,0.00,,,0.00,weatherlink.com 1.10,2013-01-03 09:23:00,
2013-01-03 03:39:00,23.2,21.0,30.30,WNW,302,0.0,0.0,89,0.00,,,0.00,weatherlink.com 1.10,2013-01-03 09:39:00,
2013-01-03 03:54:00,22.8,20.0,30.30,WNW,302,0.0,0.0,89,0.00,,,0.00,weatherlink.com 1.10,2013-01-03 09:54:00,
2013-01-03 04:09:00,22.5,20.0,30.29,WNW,302,0.0,0.0,89,0.00,,,0.00,weatherlink.com 1.10,2013-01-03 10:09:00,
2013-01-03 04:24:00,22.2,20.0,30.29,WNW,300,0.0,0.0,90,0.00,,,0.00,weatherlink.com 1.10,2013-01-03 10:24:00,
2013-01-03 04:39:00,22.1,20.0,30.29,WNW,301,0.0,0.0,90,0.00,,,0.00,weatherlink.com 1.10,2013-01-03 10:39:00,
2013-01-03 04:54:00,22.5,20.0,30.29,WNW,301,0.0,0.0,91,0.00,,,0.00,weatherlink.com 1.10,2013-01-03 10:54:00,
2013-01-03 05:09:00,23.2,21.0,30.29,WNW,300,0.0,0.0,91,0.00,,,0.00,weatherlink.com 1.10,2013-01-03 11:09:00,
2013-01-03 05:24:00,23.9,22.0,30.29,WNW,300,0.0,0.0,91,0.00,,,0.00,weatherlink.com 1.10,2013-01-03 11:24:00,
2013-01-03 05:39:00,24.6,22.0,30.29,WNW,302,0.0,1.0,90,0.00,,,0.00,weatherlink.com 1.10,2013-01-03 11:39:00,
2013-01-03 05:54:00,25.0,22.0,30.30,WNW,301,0.0,1.0,89,0.00,,,0.00,weatherlink.com 1.10,2013-01-03 11:54:00,
2013-01-03 06:09:00,25.0,22.0,30.30,WNW,296,0.0,0.0,89,0.00,,,0.00,weatherlink.com 1.10,2013-01-03 12:09:00,
2013-01-03 06:24:00,24.7,22.0,30.31,WNW,290,0.0,0.0,88,0.00,,,0.00,weatherlink.com 1.10,2013-01-03 12:24:00,
2013-01-03 06:39:00,24.1,21.0,30.31,WNW,290,0.0,0.0,89,0.00,,,0.00,weatherlink.com 1.10,2013-01-03 12:39:00,
2013-01-03 06:54:00,23.6,21.0,30.32,WNW,290,0.0,0.0,90,0.00,,,0.00,weatherlink.com 1.10,2013-01-03 12:54:00,
2013-01-03 07:09:00,23.6,21.0,30.32,SW,215,0.0,0.0,90,0.00,,,0.00,weatherlink.com 1.10,2013-01-03 13:09:00,
2013-01-03 07:24:00,23.2,21.0,30.33,SSW,212,0.0,1.0,90,0.00,,,0.00,weatherlink.com 1.10,2013-01-03 13:24:00,
2013-01-03 07:39:00,22.7,20.0,30.33,SSW,212,0.0,0.0,90,0.00,,,0.00,weatherlink.com 1.10,2013-01-03 13:39:00,
2013-01-03 07:54:00,22.5,21.0,30.34,SSW,212,0.0,0.0,92,0.00,,,0.00,weatherlink.com 1.10,2013-01-03 13:54:00,
2013-01-03 08:09:00,23.1,21.0,30.35,SSW,212,0.0,0.0,92,0.00,,,0.00,weatherlink.com 1.10,2013-01-03 14:09:00,
2013-01-03 08:24:00,23.5,22.0,30.35,SSW,212,0.0,0.0,92,0.00,,,0.00,weatherlink.com 1.10,2013-01-03 14:24:00,
2013-01-03 08:39:00,24.8,23.0,30.36,SSW,212,0.0,0.0,91,0.00,,,0.00,weatherlink.com 1.10,2013-01-03 14:39:00,
2013-01-03 08:54:00,26.6,24.0,30.37,SW,231,0.0,0.0,88,0.00,,,0.00,weatherlink.com 1.10,2013-01-03 14:54:00,
2013-01-03 09:09:00,28.2,25.0,30.37,NW,314,0.0,2.0,86,0.00,,,0.00,weatherlink.com 1.10,2013-01-03 15:09:00,
2013-01-03 09:24:00,28.9,25.0,30.38,NW,304,0.0,1.0,84,0.00,,,0.00,weatherlink.com 1.10,2013-01-03 15:24:00,
2013-01-03 09:39:00,29.7,25.0,30.38,NW,306,0.0,3.0,83,0.00,,,0.00,weatherlink.com 1.10,2013-01-03 15:39:00,
2013-01-03 09:54:00,30.4,25.0,30.39,WNW,300,2.0,3.0,81,0.00,,,0.00,weatherlink.com 1.10,2013-01-03 15:54:00,
2013-01-03 10:09:00,31.2,26.0,30.40,WNW,295,2.0,5.0,80,0.00,,,0.00,weatherlink.com 1.10,2013-01-03 16:09:00,
2013-01-03 10:24:00,31.8,26.0,30.40,WNW,298,0.0,3.0,79,0.00,,,0.00,weatherlink.com 1.10,2013-01-03 16:24:00,
2013-01-03 10:39:00,32.1,26.0,30.41,WNW,289,1.0,6.0,78,0.00,,,0.00,weatherlink.com 1.10,2013-01-03 16:39:00,
2013-01-03 10:54:00,32.3,26.0,30.41,WNW,302,5.0,6.0,78,0.00,,,0.00,weatherlink.com 1.10,2013-01-03 16:54:00,
2013-01-03 11:09:00,32.7,27.0,30.40,West,274,0.0,5.0,78,0.00,,,0.00,weatherlink.com 1.10,2013-01-03 17:09:00,
2013-01-03 11:24:00,32.9,26.0,30.40,WNW,298,2.0,5.0,77,0.00,,,0.00,weatherlink.com 1.10,2013-01-03 17:24:00,
2013-01-03 11:39:00,33.0,27.0,30.39,WNW,284,0.0,6.0,77,0.00,,,0.00,weatherlink.com 1.10,2013-01-03 17:39:00,
2013-01-03 11:54:00,33.5,26.0,30.38,NW,326,1.0,4.0,74,0.00,,,0.00,weatherlink.com 1.10,2013-01-03 17:54:00,
2013-01-03 12:10:00,34.4,27.0,30.37,NW,307,2.0,7.0,73,0.00,,,0.00,weatherlink.com 1.10,2013-01-03 18:10:00,
2013-01-03 12:25:00,34.5,27.0,30.37,WNW,287,2.0,4.0,73,0.00,,,0.00,weatherlink.com 1.10,2013-01-03 18:25:00,
2013-01-03 12:40:00,34.9,26.0,30.36,WNW,297,0.0,6.0,71,0.00,,,0.00,weatherlink.com 1.10,2013-01-03 18:40:00,
2013-01-03 12:55:00,35.5,26.0,30.36,NW,307,0.0,5.0,68,0.00,,,0.00,weatherlink.com 1.10,2013-01-03 18:55:00,
2013-01-03 13:10:00,36.1,26.0,30.36,NW,319,6.0,8.0,66,0.00,,,0.00,weatherlink.com 1.10,2013-01-03 19:10:00,
2013-01-03 14:10:00,35.2,25.0,30.35,WNW,296,1.0,5.0,66,0.00,,,0.00,weatherlink.com 1.10,2013-01-03 20:10:00,
2013-01-03 14:25:00,35.6,25.0,30.35,West,265,6.0,6.0,65,0.00,,,0.00,weatherlink.com 1.10,2013-01-03 20:25:00,
2013-01-03 14:40:00,35.7,25.0,30.35,WNW,288,0.0,6.0,65,0.00,,,0.00,weatherlink.com 1.10,2013-01-03 20:40:00,
2013-01-03 14:55:00,34.5,24.0,30.36,NW,309,0.0,7.0,66,0.00,,,0.00,weatherlink.com 1.10,2013-01-03 20:55:00,
2013-01-03 15:10:00,34.6,24.0,30.36,NNE,23,3.0,4.0,66,0.00,,,0.00,weatherlink.com 1.10,2013-01-03 21:10:00,
2013-01-03 15:25:00,35.1,25.0,30.36,NW,314,0.0,3.0,66,0.00,,,0.00,weatherlink.com 1.10,2013-01-03 21:25:00,
2013-01-03 16:10:00,33.9,24.0,30.36,NW,309,0.0,4.0,66,0.00,,,0.00,weatherlink.com 1.10,2013-01-03 22:10:00,
2013-01-03 16:25:00,33.6,23.0,30.37,WNW,288,1.0,4.0,66,0.00,,,0.00,weatherlink.com 1.10,2013-01-03 22:25:00,
2013-01-03 16:40:00,33.5,23.0,30.37,WNW,288,1.0,2.0,66,0.00,,,0.00,weatherlink.com 1.10,2013-01-03 22:40:00,
2013-01-03 16:55:00,33.1,23.0,30.38,NW,315,0.0,3.0,66,0.00,,,0.00,weatherlink.com 1.10,2013-01-03 22:55:00,
2013-01-03 17:10:00,33.0,23.0,30.38,WNW,298,0.0,2.0,66,0.00,,,0.00,weatherlink.com 1.10,2013-01-03 23:10:00,
2013-01-03 17:25:00,32.8,23.0,30.38,WNW,298,0.0,1.0,66,0.00,,,0.00,weatherlink.com 1.10,2013-01-03 23:25:00,
2013-01-03 17:40:00,32.6,23.0,30.39,WNW,290,0.0,4.0,68,0.00,,,0.00,weatherlink.com 1.10,2013-01-03 23:40:00,
2013-01-03 17:55:00,32.3,23.0,30.39,North,356,0.0,3.0,69,0.00,,,0.00,weatherlink.com 1.10,2013-01-03 23:55:00,
2013-01-03 18:10:00,31.8,23.0,30.39,NNW,333,0.0,3.0,69,0.00,,,0.00,weatherlink.com 1.10,2013-01-04 00:10:00,
2013-01-03 18:25:00,31.6,22.0,30.40,WNW,302,0.0,3.0,69,0.00,,,0.00,weatherlink.com 1.10,2013-01-04 00:25:00,
2013-01-03 18:40:00,31.3,22.0,30.40,NW,309,1.0,3.0,69,0.00,,,0.00,weatherlink.com 1.10,2013-01-04 00:40:00,
2013-01-03 18:55:00,30.9,23.0,30.40,NW,310,3.0,3.0,71,0.00,,,0.00,weatherlink.com 1.10,2013-01-04 00:55:00,
2013-01-03 19:10:00,30.6,23.0,30.40,WNW,294,0.0,2.0,72,0.00,,,0.00,weatherlink.com 1.10,2013-01-04 01:10:00,
2013-01-03 19:25:00,30.5,22.0,30.41,NNE,23,0.0,2.0,72,0.00,,,0.00,weatherlink.com 1.10,2013-01-04 01:25:00,
2013-01-03 19:40:00,30.3,23.0,30.41,NW,325,1.0,2.0,73,0.00,,,0.00,weatherlink.com 1.10,2013-01-04 01:40:00,
2013-01-03 19:55:00,30.3,23.0,30.41,WNW,300,0.0,1.0,74,0.00,,,0.00,weatherlink.com 1.10,2013-01-04 01:55:00,
2013-01-03 20:10:00,30.2,23.0,30.41,WNW,293,0.0,2.0,74,0.00,,,0.00,weatherlink.com 1.10,2013-01-04 02:10:00,
2013-01-03 20:25:00,30.0,23.0,30.41,NNW,329,0.0,1.0,74,0.00,,,0.00,weatherlink.com 1.10,2013-01-04 02:25:00,
2013-01-03 20:40:00,29.8,22.0,30.40,WNW,290,0.0,1.0,74,0.00,,,0.00,weatherlink.com 1.10,2013-01-04 02:40:00,
2013-01-03 20:55:00,29.5,22.0,30.40,WNW,290,0.0,1.0,74,0.00,,,0.00,weatherlink.com 1.10,2013-01-04 02:55:00,
2013-01-03 21:10:00,29.0,22.0,30.40,West,281,0.0,1.0,74,0.00,,,0.00,weatherlink.com 1.10,2013-01-04 03:10:00,
2013-01-03 21:25:00,28.2,22.0,30.39,WNW,293,0.0,1.0,76,0.00,,,0.00,weatherlink.com 1.10,2013-01-04 03:25:00,
2013-01-03 21:40:00,27.4,21.0,30.39,WNW,293,0.0,0.0,78,0.00,,,0.00,weatherlink.com 1.10,2013-01-04 03:40:00,
2013-01-03 21:55:00,26.6,21.0,30.40,WNW,290,0.0,0.0,79,0.00,,,0.00,weatherlink.com 1.10,2013-01-04 03:55:00,
2013-01-03 22:10:00,26.1,21.0,30.40,WNW,290,0.0,0.0,80,0.00,,,0.00,weatherlink.com 1.10,2013-01-04 04:10:00,
2013-01-03 22:25:00,25.8,21.0,30.40,WNW,290,0.0,1.0,81,0.00,,,0.00,weatherlink.com 1.10,2013-01-04 04:25:00,
2013-01-03 22:40:00,25.7,21.0,30.40,WNW,302,0.0,1.0,81,0.00,,,0.00,weatherlink.com 1.10,2013-01-04 04:40:00,
2013-01-03 22:55:00,25.5,20.0,30.40,WNW,295,0.0,0.0,81,0.00,,,0.00,weatherlink.com 1.10,2013-01-04 04:55:00,
2013-01-03 23:25:00,23.7,19.0,30.39,WNW,295,0.0,0.0,83,0.00,,,0.00,weatherlink.com 1.10,2013-01-04 05:25:00,
2013-01-03 23:40:00,22.5,19.0,30.39,WNW,295,0.0,0.0,85,0.00,,,0.00,weatherlink.com 1.10,2013-01-04 05:40:00,
2013-01-03 23:55:00,21.8,18.0,30.39,WNW,295,0.0,0.0,86,0.00,,,0.00,weatherlink.com 1.10,2013-01-04 05:55:00,